Location: Demre
(36.2444°N, 29.9850°E)
Time: 05:39:24
(UTC+00:00)

CZ-4 R/B - Pass Details

Date: 11 March 2026
Orbit: 490 x 538 km, 97.6° (Epoch: 21 April)

Event Time Altitude Azimuth Distance (km) Brightness Sun altitude
Exits shadow 19:03:17 12° 296° (WNW) 1,649 4.5 -36.0°
Drops below altitude 10° 19:03:55 10° 304° (NW) 1,793 4.7 -36.1°
Sets 19:06:47 0° 327° (NNW) 2,695 5.6 -36.7°
